Lafayette, LA

11:42 PM CST on February 26, 2017 (GMT -0600)
Lafayette Regional

Weather History for KLFT - March, 2014

Change the Weather History Date:

Saturday, March 8, 2014

  Actual Average Record
Temperature  
Mean Temperature 57 °F 60 °F  
Max Temperature 68 °F 70 °F 86 °F (1911)
Min Temperature 46 °F 51 °F 30 °F (1914)
Degree Days  
Heating Degree Days 8 6  
Month to date heating degree days 105 53  
Since 1 July heating degree days 1765 1283  
Cooling Degree Days 0 2  
Month to date cooling degree days 9 10  
Year to date cooling degree days 23 42  
Growing Degree Days 8 (Base 50)    
Moisture  
Dew Point 51 °F    
Average Humidity 76    
Maximum Humidity 93    
Minimum Humidity 59    
Precipitation  
Precipitation 0.00 in 0.13 in 1.91 in (1973)
Month to date precipitation 0.99 1.10  
Year to date precipitation 8.24 11.22  
Snow  
Snow 0.00 in 0.00 in 0.00 in ()
Month to date snowfall 0.0 0.0  
Since 1 July snowfall 0.8 T  
Snow Depth 0.00 in    
Sea Level Pressure  
Sea Level Pressure 30.11 in    
Wind  
Wind Speed 3 mph (South)    
Max Wind Speed 7 mph    
Max Gust Speed 10 mph    
Visibility 10 miles    
Events      
T = Trace of Precipitation, MM = Missing Value Source: NWS Daily Summary

Daily Weather History Graph

Daily Weather History Graph

Search for Another Location

Airport or City:

Trip Planner

Search our weather history database for the weather conditions in past years. The results will help you decide how hot, cold, wet, or windy it might be!

Date:

Astronomy

Mar. 08, 2014 Rise Set
Actual Time 6:26 AM CST 6:11 PM CST
Civil Twilight 6:02 AM CST 6:35 PM CST
Nautical Twilight 5:34 AM CST 7:03 PM CST
Astronomical Twilight 5:06 AM CST 7:31 PM CST
Moon 11:33 AM CST (3/8) 12:44 AM CST (3/8)
Length of Visible Light 12h 33m
Length of Day
11h 45m
First Quarter, 52% of the Moon is Illuminated
Mar 8
First Quarter
Mar 16
Full
Mar 23
Last Quarter
Mar 30
New
Apr 7
First Quarter

Hourly Weather History & Observations

Time (CST) Temp. Dew Point Humidity Pressure Visibility Wind Dir Wind Speed Gust Speed Precip Events Conditions
12:53 AM 48.9 °F 46.9 °F 93% 30.05 in 8.0 mi Variable 3.5 mph - N/A   Clear
1:53 AM 48.9 °F 46.9 °F 93% 30.07 in 10.0 mi South 5.8 mph - N/A   Clear
2:53 AM 48.9 °F 46.9 °F 93% 30.08 in 10.0 mi South 3.5 mph - N/A   Mostly Cloudy
3:11 AM 48.9 °F 46.9 °F 93% 30.08 in 10.0 mi South 3.5 mph - N/A   Mostly Cloudy
3:45 AM 48.9 °F 46.9 °F 93% 30.06 in 10.0 mi Calm Calm - N/A   Scattered Clouds
3:53 AM 48.9 °F 46.9 °F 93% 30.06 in 10.0 mi Calm Calm - N/A   Partly Cloudy
4:53 AM 50.0 °F 48.0 °F 93% 30.05 in 10.0 mi ESE 4.6 mph - N/A   Clear
5:53 AM 48.9 °F 46.9 °F 93% 30.07 in 10.0 mi Calm Calm - N/A   Clear
6:53 AM 48.0 °F 46.9 °F 96% 30.09 in 6.0 mi Calm Calm - N/A   Clear
7:53 AM 51.1 °F 48.9 °F 92% 30.12 in 10.0 mi Calm Calm - N/A   Partly Cloudy
8:53 AM 54.0 °F 50.0 °F 86% 30.15 in 10.0 mi Variable 3.5 mph - N/A   Mostly Cloudy
9:53 AM 57.0 °F 51.1 °F 81% 30.17 in 10.0 mi ENE 6.9 mph - N/A   Overcast
10:53 AM 61.0 °F 52.0 °F 72% 30.17 in 10.0 mi Variable 3.5 mph - N/A   Overcast
11:53 AM 64.9 °F 53.1 °F 65% 30.15 in 10.0 mi East 5.8 mph - N/A   Mostly Cloudy
12:53 PM 66.9 °F 55.0 °F 66% 30.12 in 10.0 mi South 5.8 mph - N/A   Mostly Cloudy
1:53 PM 66.9 °F 53.1 °F 61% 30.10 in 10.0 mi Variable 3.5 mph - N/A   Overcast
2:53 PM 66.9 °F 53.1 °F 61% 30.09 in 10.0 mi Calm Calm - N/A   Overcast
3:53 PM 68.0 °F 53.1 °F 59% 30.08 in 10.0 mi Calm Calm - N/A   Overcast
4:53 PM 66.9 °F 54.0 °F 63% 30.08 in 10.0 mi Calm Calm - N/A   Overcast
5:53 PM 64.9 °F 55.0 °F 70% 30.10 in 10.0 mi SSW 6.9 mph - N/A   Overcast
6:53 PM 63.0 °F 54.0 °F 72% 30.13 in 10.0 mi WSW 4.6 mph - N/A   Overcast
7:53 PM 63.0 °F 54.0 °F 72% 30.14 in 10.0 mi SSW 4.6 mph - N/A   Scattered Clouds
8:53 PM 62.1 °F 54.0 °F 75% 30.15 in 10.0 mi Calm Calm - N/A   Clear
9:53 PM 61.0 °F 54.0 °F 78% 30.17 in 10.0 mi Calm Calm - N/A   Clear
10:53 PM 60.1 °F 53.1 °F 78% 30.17 in 10.0 mi Calm Calm - N/A   Overcast
11:53 PM 60.1 °F 54.0 °F 80% 30.18 in 10.0 mi Calm Calm - N/A   Overcast